Regional Weather Roundup
Issued by NWS

Home | Current Version | Previous Version | Text Only | Print | Product List | Glossary Off
Versions: 1 2 3 4 5 6 7 8 9 10 11 12 13 14 15 16 17 18 19 20 21 22 23 24 25 26 27 28 29 30 31 32 33 34 35 36 37 38 39 40 41 42 43 44 45 46 47 48 49 50

920
ASUS45 KPSR 300710
RWRAZ

ARIZONA HOURLY REGIONAL WEATHER ROUNDUP
NATIONAL WEATHER SERVICE PHOENIX AZ
1200 AM MST FRI SEP 30 2016

NOTE: FAIR INDICATES FEW OR NO CLOUDS BELOW 12,000 FEET WITH NO
SIGNIFICANT WEATHER AND/OR OBSTRUCTIONS TO VISIBILITY.

AZZ001>003-036-300800-
NORTHWEST ARIZONA

CITY           SKY/WX    TMP DP  RH WIND       PRES   REMARKS
BULLHEAD CITY  PTCLDY    82  48  30 SE5       30.00S
KINGMAN        PTCLDY    72  51  47 SE12      30.18S
$$

AZZ004>008-015-016-018-300800-
NORTH CENTRAL ARIZONA

CITY           SKY/WX    TMP DP  RH WIND       PRES   REMARKS
GRAND CANYON   CLEAR     52  48  86 E5        30.39F
PRESCOTT       CLEAR     56  52  86 SW6       30.30S
FLAGSTAFF      FOG       51  51 100 E6        30.42F VSB 1/2
PAYSON         CLEAR     57  52  82 CALM      30.33S
PAGE           PTCLDY    63  59  87 NE3       30.28S
$$

AZZ009>014-017-300800-
NORTHEAST ARIZONA

CITY           SKY/WX    TMP DP  RH WIND       PRES   REMARKS
WINSLOW        CLEAR     50  49  96 W5        30.33F
SAINT JOHNS    PTCLDY    56  52  86 E7        30.33F
WINDOW ROCK    FOG       48  46  93 CALM      30.43F VSB 1
SHOW LOW       CLEAR     50  48  93 CALM      30.39S
$$

AZZ023-300800-
GREATER PHOENIX AREA

CITY           SKY/WX    TMP DP  RH WIND       PRES   REMARKS
PHOENIX        CLEAR     82  57  42 E9        30.02S
BUCKEYE        CLEAR     75  54  46 N6        30.03S
LUKE AFB       CLEAR     76  59  55 N8        30.02S
DEER VALLEY    CLEAR     78  53  41 NE5       30.05R
SCOTTSDALE     CLEAR     77  54  44 SW3       30.06R
MESA-GATEWAY   CLEAR     75  59  57 SE5       30.07R
$$

AZZ027-028-300800-
SOUTHWEST MARICOPA COUNTY AND PINAL COUNTY

CITY           SKY/WX    TMP DP  RH WIND       PRES   REMARKS
CASA GRANDE    CLEAR     75  59  57 E7        30.07S
GILA BEND      FAIR      79  53  40 S7        30.00S
$$

AZZ503-504-507>509-300800-
SOUTHEAST ARIZONA

CITY           SKY/WX    TMP DP  RH WIND       PRES   REMARKS
TUCSON         CLEAR     70  62  76 S6        30.15S
DAVIS-MONTHAN  CLEAR     70  62  74 SE13      30.14F
NOGALES        MOCLDY    65  59  81 CALM      30.22S
SIERRA VISTA   PTCLDY    64  59  86 CALM      30.29S
DOUGLAS        CLOUDY    64  60  87 N3        30.25S
SAFFORD        LGT RAIN  67  59  75 SE10      30.23S
$$

AZZ020-021-025-026-031-300800-
SOUTHWEST ARIZONA

CITY           SKY/WX    TMP DP  RH WIND       PRES   REMARKS
YUMA           NOT AVBL
$$

CAZ031-033-041-043-047-048-061-300800-
SOUTHERN CALIFORNIA

CITY           SKY/WX    TMP DP  RH WIND       PRES   REMARKS
DOWNTOWN L.A.  CLEAR     70  61  73 CALM      30.03S
L.A. AIRPORT   CLEAR     69  62  78 W7        30.04R
SAN DIEGO      MOCLDY    74  65  73 CALM      30.03F
BURBANK        CLEAR     73  58  59 SE8       30.04S
ONTARIO        CLEAR     74  51  44 W3        30.06S
RIVERSIDE      CLEAR     75  55  49 CALM      30.06S
PALM SPRINGS   PTCLDY    85  52  32 CALM      30.00S
EL CENTRO NAS  PTCLDY    78  52  40 W7        29.97S
IMPERIAL       PTCLDY    79  57  46 W6        29.94S
BLYTHE         CLEAR     80  50  34 SE3       29.98S
NEEDLES        PTCLDY    85  48  27 W3        30.01S
$$

NVZ020-UTZ003-300800-
SOUTHERN NEVADA-UTAH

CITY           SKY/WX    TMP DP  RH WIND       PRES   REMARKS
LAS VEGAS      PTCLDY    78  41  26 SW6       30.07S
SALT LAKE CITY MOCLDY    66  51  58 SE10      30.18S
$$

NMZ009-TXZ055-300800-
NEW MEXICO-WEST TEXAS

CITY           SKY/WX    TMP DP  RH WIND       PRES   REMARKS
ALBUQUERQUE    CLOUDY    59  58  96 SE12      30.39F
EL PASO        CLOUDY    72  45  37 E6        30.27S
$$


........................KEY........................
SKY/WX - SKY CONDITION/WEATHER
TMP    - TEMPERATURE IN FAHRENHEIT
DP     - DEW POINT IN FAHRENHEIT
RH     - RELATIVE HUMIDITY IN PERCENT
WIND   - DIRECTION AND SPEED IN MILES PER HOUR (MPH)
VRB    - VARIABLE WIND DIRECTION
PRES   - MEAN SEA LEVEL PRESSURE IN INCHES OF MERCURY
         F - FALLING PRESSURE   R - RISING PRESSURE
         S - STEADY PRESSURE
VSB    - VISIBILITY IN MILES
HX     - HEAT INDEX IN FAHRENHEIT
WCI    - WIND CHILL INDEX IN FAHRENHEIT
TC     - TEMPERATURE IN CELSIUS WHICH IS ALSO KNOWN AS
         TEMPERATURE IN CENTIGRADE
AFB    - AIR FORCE BASE
         LUKE AFB IS LUKE AIR FORCE BASE
         DAVIS-MONTHAN IS DAVIS-MONTHAN AIR FORCE BASE
NAS    - NAVAL AIR STATION
         EL CENTRO NAS IS EL CENTRO NAVAL AIR STATION
N/A    - NOT AVAILABLE





USA.gov is the U.S. government's official web portal to all federal, state and local government web resources and services.